Regional Weather Roundup
Issued by NWS Raleigh/Durham, NC

Home | Current Version | Previous Version | Text Only | Print | Product List | Glossary On
Versions: 1 2 3 4 5 6 7 8 9 10 11 12 13 14 15 16 17 18 19 20 21 22 23 24 25 26 27 28 29 30 31 32 33 34 35 36 37 38 39 40 41 42 43 44 45 46 47 48 49 50
000
ASUS42 KRAH 240610
RWRRAH
NORTH CAROLINA WEATHER ROUNDUP
NATIONAL WEATHER SERVICE RALEIGH NC
200 AM EDT SAT JUN 24 2017

NOTE: "FAIR" INDICATES FEW OR NO CLOUDS BELOW 12,000 FEET WITH NO
SIGNIFICANT WEATHER AND/OR OBSTRUCTIONS TO VISIBILITY.

NCZ001-053-055-056-065-067-240700-
WESTERN NORTH CAROLINA

CITY           SKY/WX    TMP DP  RH WIND       PRES   REMARKS
ASHEVILLE      CLOUDY    70  67  90 NW3       29.97F
JEFFERSON      MOCLDY    65  61  85 NW13G26   29.96S
HICKORY        LGT RAIN  74  70  87 SW10      29.89S
RUTHERFORDTON  NOT AVBL
MOUNT AIRY     CLOUDY    74  69  82 SW7       29.87R
BOONE          NOT AVBL
$$

NCZ021-022-025-041-071-084-088-240700-
CENTRAL NORTH CAROLINA

CITY           SKY/WX    TMP DP  RH WIND       PRES   REMARKS
CHARLOTTE      CLOUDY    76  72  87 SW10      29.90S
GREENSBORO     CLOUDY    77  75  93 SW21G31   29.83S
WINSTON-SALEM  CLOUDY    76  71  85 SW9G18    29.85R
RALEIGH-DURHAM MOCLDY    80  75  84 SW18G29   29.84F
FORT BRAGG     CLEAR     79  73  81 SW12G18   29.87F
FAYETTEVILLE   CLEAR     81  73  76 S16G23    29.88F
BURLINGTON     RAIN      80  74  81 S13G25    29.82F
LAURINBURG     CLEAR     78  75  90 SW17      29.91F
$$

NCZ011-015-027-028-043-044-047-080-103-240700-
NORTHEASTERN NORTH CAROLINA

CITY           SKY/WX    TMP DP  RH WIND       PRES   REMARKS
ROCKY MT-WILSO CLEAR     78  74  87 S13       29.85F
GREENVILLE     CLEAR     79  70  73 SW14G20   29.90F
WASHINGTON     CLEAR    N/A N/A N/A SW10G17   29.90S
ELIZABETH CITY CLEAR     79  71  76 S20G28    29.85F
MANTEO         CLEAR     79  73  83 SW22G28   29.88F
CAPE HATTERAS  CLOUDY    80  75  84 SW16G25   29.94F
$$

NCZ078-087-090-091-093-098-101-240700-
SOUTHEASTERN NORTH CAROLINA

CITY           SKY/WX    TMP DP  RH WIND       PRES   REMARKS
LUMBERTON      CLEAR     78  72  81 S12       29.90F
GOLDSBORO      CLEAR     78  76  94 SW13G22   29.87F
KINSTON        CLEAR     78  70  77 S17       29.91F
KENANSVILLE    PTCLDY    77  72  83 S6        29.92F
NEW BERN       CLEAR     78  73  84 SW12G21   29.92F
CHERRY POINT   PTCLDY    80  74  81 SW15G29   29.93
BEAUFORT       CLEAR     80  77  90 SW21G30   29.94F
JACKSONVILLE   PTCLDY    78  73  84 SW13      29.92F
WILMINGTON     CLEAR     80  75  84 SW17G30   29.94F
$$




USA.gov is the U.S. government's official web portal to all federal, state and local government web resources and services.